星链-36135(STARLINK-36135)

导读

STARLINK-36135是SpaceX星链互联网星座项目中的一颗卫星,于2025年12月8日由美国发射,归属美国太空探索技术公司。它加入了近地轨道星链组网,旨在为全球尤其是偏远区域用户提供高速低延迟的互联网接入服务,进一步扩展星链星座的服务覆盖范围与网络容量。

基本信息
目录编号:
66986
目录名称:
STARLINK-36135
国际标识:
2025-288AD
轨道中心:
EARTH
卫星名称:
星链-36135
卫星全名:
星链-36135(STARLINK-36135)
卫星状态:
在轨 (已飞行279 天)
发射日期:
2025-12-08 UTC
国别 :
美国 (US)
星等 :
--
该卫星已列入 空间交会检测服务 Space Conjunction Data Service (SCDS) ,当前飞行风险评估等级: 高风险
轨道信息
数据来源 国际轨道数据
星历时间: 2026-09-13T11:08:50+0800
6小时前
查看轨道信息
半长轴: 6861.099km
偏心率: 0.0003036
轨道倾角: 43.007°
近地点辐角 263.863°
升交点赤经 44.918°
平近点角 96.188°
近地点: 480.878km
远地点: 485.046km
周期: 94.265分钟
每日圈数: 15.276092
详细信息
固有亮度:
5
最大亮度:
2.5
卫星平台:
Starlink V1.0
覆盖范围:
全球
运营商:
太空探索技术公司
运营商所在国:
美国
制造商(研发单位):
太空探索技术公司
制造商所在国:
美国
使用方式:
暂无
卫星简介
Starlink 计划是 SpaceX 推出的全球卫星互联网项目,通过发射低轨道卫星,为全球尤其是偏远地区提供高速、低延迟的互联网服务。自 2019 年起,Starlink 已部署数千颗卫星,旨在缩小全球数字鸿沟,推动互联网普及。该项目还为军事、航空等行业提供通信支持,带来广泛经济效益。
2D轨道图
3D轨道图
轨道高度分析图
轨道倾角分析图
轨道综合分析图
查看轨道综合分析图
交会数据列表
事件ID 空间交会对象 最接近时刻(TCA) 交会距离 交会风险概率(CRP) 交会风险指数(CRI) 操作
CDM_260913-234505-786406-698621
2026-09-13T
23:45:43+0000
0.357 km
远距离
2.881057E-4 高风险 0.84
CDM_260913-174905-770906-698621
2026-09-13T
17:49:38+0000
0.532 km
远距离
1.186525E-4 高风险 0.76
CDM_260914-153106-698606-733321
2026-09-14T
15:31:56+0000
0.562 km
远距离
7.963174E-5 中风险 0.73
CDM_260914-100206-698606-733321
2026-09-14T
10:02:24+0000
0.890 km
远距离
1.903655E-5 中风险 0.61
CDM_260915-042906-382106-698621
2026-09-15T
04:29:00+0000
1.177 km
极远距离
1.171917E-5 中风险 0.56
CDM_260913-133305-786406-698622
2026-09-13T
13:33:43+0000
1.241 km
极远距离
8.228643E-6 低风险 0.53
CDM_260913-150705-786406-698621
2026-09-13T
15:07:52+0000
1.431 km
极远距离
5.104431E-6 低风险 0.49
CDM_260914-162105-559806-698621
2026-09-14T
16:21:59+0000
1.189 km
极远距离
4.589513E-6 低风险 0.48
CDM_260915-072305-848806-698621
2026-09-15T
07:23:16+0000
1.335 km
极远距离
3.798184E-6 低风险 0.47
CDM_260914-022705-770906-698621
2026-09-14T
02:27:28+0000
1.607 km
极远距离
3.454048E-6 低风险 0.46
与全量物体交会距离演化趋势
与全量物体交会风险概率演化趋势